User: anonymous   Login
Location: Arbon
(43.0005°N, 0.7472°E)
Time: 06:48:46
(UTC+00:00)
Language:

Resurs 1-4 Rocket - Orbit

View from above orbital plane
View from above orbital plane
View from above satellite
View from above satellite

Ground track
Ground track

The orbit data is extracted from the following two-line orbital elements,

1 25400U 98043G   20292.83199878 -.00000008  00000-0  15131-4 0  9997
2 25400  98.6147 226.5199 0009585 341.9878  18.0960 14.25462390158823
Epoch (UTC): 18 October 2020 19:58:04
Eccentricity: 0.0009585
inclination: 98.6147°
perigee height: 800 km
apogee height: 814 km
right ascension of ascending node: 226.5199°
argument of perigee: 341.9878°
revolutions per day: 14.25462390
mean anomaly at epoch: 18.0960°
orbit number at epoch: 15882

The dashed part of the orbit path shows where the satellite is in the earth's shadow,  

DLR